Terminal Aerodrome Forecast
Issued by NWS

Home | Current Version | Previous Version | Text Only | Print | Product List | Glossary On
Versions: 1 2 3 4 5 6 7 8 9 10 11 12 13 14 15 16 17 18 19 20 21 22 23 24 25 26
000
FTUS41 KBUF 260500
TAFJHW
TAF
KJHW 260520Z 2606/2706 00000KT P6SM BKN120
     FM260800 19004KT P6SM OVC080
     FM261300 21006KT P6SM OVC070
     FM261600 20010KT P6SM BKN080
     FM262100 22009KT P6SM VCSH BKN045
      AMD LTD TO CLD VIS AND WIND=

USA.gov is the U.S. government's official web portal to all federal, state and local government web resources and services.